Wind_Speed
30 30 28 26 24 23 22 22 20 18 17 18 17 16 16 16 17 18 19 19 19 18 17 15 14 14 14 12 10 9 8 8 8 8 9 10 12 12 13 15 16 18
30 31 30 29 26 25 24 23 21 19 18 18 18 18 19 19 20 20 20 21 21 20 18 17 16 15 14 13 11 11 10 10 10 10 10 11 12 13 13 14 15 17
31 31 31 30 28 25 24 23 22 20 19 20 20 20 21 22 22 22 21 22 21 21 20 18 16 15 14 13 12 12 12 12 12 11 11 12 13 14 15 15 16 16
30 31 31 30 28 26 25 24 23 21 21 22 22 22 23 24 24 23 23 22 22 21 20 18 16 15 15 14 13 13 13 13 13 13 13 13 14 15 16 17 17 17
30 30 30 30 28 27 26 26 24 22 23 24 24 24 25 25 25 24 23 22 21 21 20 18 16 14 14 15 15 14 15 15 15 15 14 14 15 15 16 17 18 18
29 29 30 30 29 28 28 26 24 23 25 26 26 26 26 26 26 25 24 22 21 20 20 19 17 16 15 15 15 15 16 16 17 17 16 16 17 17 17 18 18 19
28 28 29 29 29 29 28 27 25 25 27 28 28 28 27 27 26 25 24 23 21 20 19 18 18 17 16 16 15 15 16 17 19 19 18 18 18 19 19 19 19 20
27 28 28 29 29 29 29 28 27 27 28 29 30 29 28 27 26 25 24 24 22 20 19 19 18 18 18 17 16 16 16 17 19 20 20 20 20 20 20 21 21 21
27 28 28 28 29 29 29 28 27 28 29 30 30 29 29 28 26 25 25 24 23 21 20 19 19 18 18 18 17 17 17 18 19 20 21 21 21 21 21 22 22 22
27 27 28 28 29 29 29 28 28 29 30 31 30 30 30 28 27 26 25 24 23 22 21 20 19 18 18 18 17 17 18 19 21 22 22 22 22 22 22 23 23 23
27 27 27 28 28 28 28 28 29 29 30 30 30 31 30 29 28 27 26 25 23 21 20 19 18 18 18 18 17 18 20 21 22 23 23 23 23 23 24 24 24 24
28 28 27 27 27 27 28 28 29 29 30 30 31 31 30 29 28 27 25 24 22 21 20 19 18 19 18 18 19 20 21 22 22 23 23 23 23 24 24 25 25 25
30 29 28 28 28 27 28 29 29 29 30 30 31 31 30 29 27 27 25 23 22 22 21 20 20 20 20 20 20 21 21 21 22 22 22 23 24 24 24 25 26 26
31 30 30 29 28 28 28 29 29 29 29 30 31 31 30 29 27 26 25 24 24 23 22 22 22 22 21 21 20 20 20 20 21 22 23 24 25 25 26 26 26 26
33 32 31 30 29 29 28 29 29 30 30 30 31 31 30 29 28 27 26 26 26 25 24 24 24 23 21 20 19 19 20 20 22 23 24 25 26 26 26 26 25 25
35 34 32 31 30 29 29 30 30 30 30 31 31 31 30 29 29 28 28 28 28 27 26 25 24 22 20 19 19 19 20 21 22 23 23 25 26 25 24 24 23 24
36 36 34 32 31 30 30 31 30 30 31 31 32 32 31 30 30 30 30 30 29 28 27 26 24 21 20 20 20 19 20 22 22 22 23 25 26 24 22 22 21 22
36 37 35 33 32 32 31 31 31 31 31 31 32 32 32 32 32 32 31 30 30 29 28 26 23 22 21 20 20 20 21 22 22 22 23 25 26 25 23 22 20 21
36 37 36 35 33 33 33 32 32 33 32 33 33 33 34 34 33 33 32 31 31 30 28 25 23 22 22 20 20 21 22 22 22 22 24 26 26 25 25 23 21 21
37 38 37 36 35 34 34 34 33 34 34 34 34 35 35 35 34 34 33 32 32 30 27 25 24 23 22 21 21 21 22 22 22 23 24 26 26 25 25 24 22 23
39 39 38 38 37 36 36 35 35 36 36 37 37 37 36 36 35 35 34 33 31 29 27 26 24 23 22 21 22 22 23 23 23 23 24 25 26 26 25 23 22 24
40 40 40 40 38 37 37 37 37 37 37 38 38 38 37 37 37 36 35 34 32 30 29 27 25 24 23 22 23 23 24 25 25 23 22 23 25 27 26 23 21 24
40 42 42 42 41 38 38 38 39 38 38 39 39 39 39 38 38 37 36 35 33 31 30 28 26 25 24 24 24 24 26 27 26 23 22 23 25 28 27 23 22 25
39 42 43 44 43 41 39 39 40 40 40 39 40 40 40 39 38 38 37 35 34 33 31 28 27 26 26 26 26 26 27 27 23 21 23 24 25 29 29 25 23 25
37 40 42 44 44 43 42 41 41 42 41 40 40 40 41 40 39 38 38 36 35 33 30 29 28 28 28 29 28 27 27 25 21 22 26 27 26 29 30 27 25 25
34 36 39 42 44 44 43 43 43 44 43 42 41 41 42 42 41 40 39 37 35 33 31 30 31 31 30 30 29 27 26 24 24 26 28 28 28 29 29 27 26 25
Wind_Direction
237 239 238 236 234 235 234 233 231 224 217 214 212 207 204 207 210 204 197 195 196 199 206 210 213 219 225 231 240 250 264 284 302 315 324 328 334 344 351 356 357 357
233 235 238 237 233 232 232 231 228 221 213 210 208 203 202 204 205 202 197 195 197 202 210 215 218 223 229 236 245 255 266 279 291 303 314 319 324 330 337 345 350 351
231 232 236 237 235 232 230 229 225 217 208 205 203 200 200 202 203 202 198 197 200 205 213 219 222 227 234 242 250 259 268 277 285 297 307 312 317 321 325 331 338 343
231 231 234 236 236 233 230 227 221 211 204 201 200 199 199 200 201 202 202 200 202 207 215 222 227 231 237 246 255 263 271 276 282 292 300 305 310 315 318 322 326 331
232 231 233 235 235 233 228 224 217 206 200 198 198 199 200 200 201 203 204 203 204 209 216 224 231 237 242 248 256 265 272 276 281 287 293 297 301 306 310 314 318 320
232 231 231 233 234 232 228 222 214 204 198 198 198 199 200 201 202 203 205 207 209 213 218 224 233 241 247 253 258 264 271 277 279 283 287 291 294 298 301 304 309 312
232 232 231 232 231 230 226 221 214 205 199 199 200 200 201 202 203 204 207 211 215 217 221 226 233 240 246 253 258 263 269 274 277 281 285 288 289 293 296 298 300 302
231 231 232 232 230 228 224 219 214 207 201 200 201 201 202 203 203 205 209 213 216 219 222 226 232 238 244 249 255 261 266 271 275 279 283 284 286 289 292 292 293 294
231 231 230 230 229 226 223 218 214 209 205 204 203 203 204 205 206 207 210 213 217 219 223 227 232 238 244 249 255 260 265 270 274 277 279 281 283 285 285 285 287 288
231 231 230 229 228 226 223 219 215 212 209 207 206 206 207 207 208 210 212 215 217 219 223 227 232 239 245 250 256 262 266 270 273 274 277 278 279 280 280 280 282 282
230 231 230 230 228 226 224 220 217 214 211 209 208 209 210 210 210 212 214 216 218 221 224 228 232 238 244 250 256 261 265 267 270 271 273 275 276 276 276 276 277 277
227 228 229 229 228 227 225 222 219 216 214 211 211 212 212 212 213 214 216 218 220 223 226 227 231 237 243 248 252 256 259 263 266 270 272 273 273 273 273 272 272 272
226 226 228 228 228 227 226 224 222 219 216 213 213 214 214 215 215 216 219 220 222 225 226 226 230 236 241 245 249 252 257 262 266 270 272 273 273 272 271 270 270 269
228 228 229 228 228 228 227 225 223 221 219 216 215 215 216 216 217 218 220 221 222 224 225 226 230 234 239 243 248 253 258 264 268 271 275 276 276 274 271 270 269 269
231 231 230 229 228 227 227 226 225 223 221 219 217 217 217 217 218 219 220 220 220 221 222 225 230 234 238 244 249 254 259 264 268 273 277 280 280 277 274 271 269 268
232 233 232 231 229 226 226 227 225 224 223 221 220 219 219 218 219 220 219 219 219 219 221 225 230 234 239 244 249 254 259 264 269 274 281 284 284 281 278 274 272 271
235 234 233 233 232 228 227 227 226 225 224 223 222 221 221 220 220 220 219 218 219 220 222 226 230 234 239 244 248 253 258 263 269 276 283 286 287 287 284 279 274 271
239 237 234 234 234 231 229 227 226 226 225 224 223 222 222 222 222 222 220 219 220 222 224 227 230 235 239 243 247 252 258 263 270 278 284 287 289 290 290 287 278 271
240 239 236 235 234 233 231 228 227 226 225 225 224 223 223 223 223 223 221 221 222 223 225 228 231 236 239 242 247 252 257 263 270 277 283 288 289 290 290 289 284 278
239 240 238 236 233 233 232 230 228 227 226 226 225 224 224 224 224 224 223 223 224 225 227 229 232 236 238 241 246 251 256 263 269 275 282 286 286 286 288 285 279 276
239 240 239 235 232 232 232 231 229 228 227 226 226 225 225 225 226 226 225 226 227 227 228 230 233 236 238 241 245 249 255 262 267 274 280 282 279 281 285 282 275 274
241 240 238 234 230 230 231 231 230 230 229 228 227 226 225 226 227 227 227 228 228 229 230 231 234 237 238 239 242 247 254 259 263 268 276 280 279 280 283 282 277 276
244 241 237 234 230 229 230 231 231 231 231 229 228 227 225 226 227 228 229 229 229 230 230 232 235 238 238 238 240 245 252 257 262 270 277 281 280 279 281 281 276 274
249 243 237 233 232 230 230 230 230 231 232 231 230 229 227 227 228 228 229 230 231 230 231 233 237 238 238 237 238 244 252 258 265 276 282 284 282 280 282 283 278 274
256 249 240 234 233 231 229 228 229 230 232 232 231 231 230 229 229 230 230 230 230 230 230 234 237 238 237 236 237 244 253 260 270 279 284 284 280 277 279 282 280 275
257 255 245 238 236 233 229 228 228 229 230 231 232 232 232 231 231 230 230 230 230 229 230 234 238 238 236 235 237 242 250 262 275 283 286 284 277 273 275 279 281 278
Height
3175 3176 3177 3177 3178 3180 3181 3182 3183 3185 3186 3188 3190 3191 3193 3194 3195 3196 3198 3199 3200 3201 3202 3202 3202 3203 3203 3204 3204 3205 3205 3205 3205 3205 3204 3204 3204 3204 3203 3203 3202 3201
3172 3173 3174 3175 3176 3177 3178 3180 3181 3183 3184 3186 3188 3189 3191 3192 3193 3194 3196 3198 3199 3200 3200 3201 3201 3202 3202 3203 3203 3203 3204 3204 3204 3204 3203 3203 3203 3202 3202 3202 3202 3201
3169 3170 3171 3172 3174 3175 3176 3178 3179 3180 3182 3183 3185 3187 3189 3190 3191 3193 3195 3196 3197 3198 3198 3199 3200 3200 3201 3201 3202 3202 3202 3203 3203 3203 3202 3202 3202 3201 3201 3201 3201 3201
3166 3167 3169 3170 3172 3173 3174 3175 3176 3178 3180 3181 3183 3185 3187 3188 3190 3191 3193 3194 3196 3196 3197 3198 3198 3199 3199 3200 3200 3200 3201 3201 3201 3201 3201 3201 3201 3200 3199 3199 3199 3199
3163 3165 3166 3168 3169 3171 3171 3172 3174 3176 3178 3179 3181 3183 3185 3186 3188 3190 3191 3193 3194 3195 3195 3196 3196 3197 3198 3198 3198 3199 3199 3199 3199 3199 3199 3199 3199 3198 3198 3198 3198 3198
3161 3162 3163 3165 3167 3168 3169 3170 3172 3174 3176 3177 3179 3181 3183 3184 3186 3188 3189 3191 3192 3193 3194 3194 3195 3195 3196 3196 3197 3197 3197 3197 3197 3197 3197 3197 3197 3197 3196 3196 3196 3196
3158 3159 3160 3162 3164 3165 3166 3168 3170 3172 3174 3175 3177 3179 3180 3182 3184 3186 3188 3189 3190 3191 3192 3192 3193 3194 3194 3195 3195 3195 3195 3195 3195 3195 3195 3195 3195 3194 3194 3194 3194 3194
3155 3156 3158 3159 3161 3162 3164 3166 3167 3169 3171 3173 3174 3176 3178 3180 3182 3184 3185 3186 3187 3189 3190 3190 3191 3192 3192 3193 3193 3193 3194 3193 3193 3193 3193 3193 3193 3192 3192 3191 3191 3191
3152 3154 3155 3156 3158 3159 3161 3163 3165 3167 3169 3171 3173 3174 3176 3177 3179 3181 3183 3184 3185 3186 3187 3188 3189 3190 3190 3191 3191 3191 3191 3191 3191 3191 3190 3190 3190 3190 3190 3189 3189 3189
3150 3151 3152 3153 3155 3157 3159 3161 3163 3165 3167 3169 3171 3172 3173 3175 3177 3179 3180 3181 3182 3184 3185 3186 3187 3188 3188 3188 3189 3189 3189 3189 3188 3188 3188 3188 3187 3187 3187 3186 3186 3186
3147 3148 3149 3150 3152 3154 3157 3159 3161 3163 3165 3167 3168 3170 3171 3173 3174 3176 3177 3179 3180 3182 3183 3184 3185 3186 3186 3186 3187 3187 3186 3186 3186 3185 3185 3185 3184 3184 3184 3183 3183 3183
3144 3145 3146 3148 3150 3152 3154 3156 3158 3160 3162 3164 3166 3167 3169 3170 3172 3173 3175 3176 3178 3179 3180 3182 3182 3183 3183 3184 3184 3184 3184 3183 3183 3182 3182 3182 3181 3181 3181 3180 3180 3180
3141 3142 3144 3146 3148 3150 3152 3154 3156 3158 3160 3162 3164 3165 3167 3168 3170 3171 3173 3174 3175 3176 3177 3179 3179 3180 3180 3181 3181 3181 3181 3180 3180 3180 3179 3178 3178 3177 3177 3177 3177 3177
3139 3140 3142 3144 3146 3148 3150 3151 3153 3155 3157 3160 3162 3163 3165 3166 3168 3169 3171 3172 3172 3173 3174 3175 3176 3176 3177 3178 3178 3178 3178 3178 3177 3177 3176 3175 3174 3174 3173 3173 3173 3173
3137 3138 3140 3142 3143 3145 3147 3148 3150 3152 3155 3157 3159 3161 3163 3165 3166 3167 3168 3168 3169 3170 3171 3171 3172 3173 3174 3175 3175 3176 3176 3175 3174 3173 3172 3172 3171 3170 3170 3169 3170 3170
3134 3136 3137 3139 3140 3142 3144 3146 3148 3150 3152 3154 3156 3159 3161 3162 3164 3164 3165 3165 3166 3166 3167 3168 3169 3170 3172 3172 3173 3173 3173 3172 3171 3170 3170 3169 3168 3167 3166 3166 3166 3167
3131 3133 3135 3136 3138 3140 3141 3143 3145 3147 3149 3152 3154 3156 3158 3159 3160 3161 3162 3162 3163 3163 3164 3165 3167 3168 3169 3169 3170 3170 3169 3169 3168 3168 3167 3166 3165 3164 3164 3163 3164 3164
3128 3130 3132 3134 3135 3137 3139 3141 3143 3145 3147 3149 3151 3153 3154 3156 3157 3158 3158 3159 3160 3160 3161 3162 3164 3165 3166 3166 3166 3166 3166 3165 3165 3165 3164 3163 3162 3161 3161 3161 3161 3161
3124 3126 3128 3131 3133 3134 3136 3138 3140 3142 3144 3146 3147 3149 3150 3152 3153 3154 3155 3156 3156 3157 3158 3160 3161 3162 3162 3163 3163 3163 3162 3162 3162 3161 3161 3160 3159 3158 3158 3158 3157 3157
3120 3122 3125 3127 3129 3131 3133 3135 3137 3139 3141 3142 3143 3145 3146 3148 3150 3151 3152 3153 3154 3155 3156 3157 3158 3158 3159 3159 3159 3159 3158 3158 3158 3157 3156 3155 3154 3154 3154 3154 3154 3153
3116 3118 3120 3123 3125 3127 3129 3131 3133 3135 3136 3138 3139 3141 3143 3145 3146 3147 3149 3150 3151 3152 3153 3154 3154 3155 3156 3156 3156 3155 3154 3154 3153 3151 3151 3151 3151 3151 3151 3150 3150 3150
3113 3114 3116 3118 3120 3123 3125 3127 3128 3130 3132 3134 3136 3138 3139 3141 3142 3144 3145 3146 3148 3149 3150 3150 3151 3152 3153 3153 3153 3151 3150 3148 3146 3145 3146 3148 3148 3148 3147 3147 3147 3147
3109 3110 3111 3113 3115 3118 3120 3121 3124 3126 3128 3130 3131 3133 3135 3137 3138 3140 3142 3143 3145 3146 3146 3147 3148 3149 3150 3150 3149 3148 3145 3142 3141 3142 3143 3145 3145 3145 3144 3144 3144 3144
3105 3106 3107 3108 3110 3112 3114 3117 3119 3121 3123 3125 3127 3129 3131 3133 3134 3136 3138 3139 3141 3142 3143 3145 3145 3146 3146 3146 3145 3144 3141 3138 3140 3142 3141 3141 3143 3143 3141 3140 3140 3140
3101 3102 3103 3104 3106 3108 3110 3112 3114 3117 3119 3121 3123 3125 3127 3128 3130 3132 3134 3135 3137 3138 3140 3141 3141 3142 3142 3142 3141 3140 3138 3136 3138 3139 3138 3138 3139 3139 3137 3137 3136 3136
3097 3098 3099 3101 3102 3103 3106 3108 3110 3112 3114 3116 3118 3120 3122 3124 3126 3127 3129 3130 3132 3134 3136 3136 3136 3137 3138 3138 3138 3137 3136 3135 3135 3135 3135 3135 3135 3134 3134 3133 3133 3133